Findlay, OH

11:30 AM EST on January 22, 2018 (GMT -0500)
Findlay

Weather History for KFDY - October, 2012

Change the Weather History Date:

Friday, October 5, 2012

  Actual Average Record
Temperature  
Mean Temperature 54 °F -  
Max Temperature 66 °F 67 °F 88 °F (1951)
Min Temperature 42 °F 45 °F 27 °F (1965)
Degree Days  
Heating Degree Days 11    
Growing Degree Days 4 (Base 50)    
Moisture  
Dew Point 49 °F    
Average Humidity 89    
Maximum Humidity 100    
Minimum Humidity 68    
Precipitation  
Precipitation 0.87 in - - ()
Sea Level Pressure  
Sea Level Pressure 30.05 in    
Wind  
Wind Speed 9 mph (West)    
Max Wind Speed 13 mph    
Max Gust Speed 16 mph    
Visibility 7 miles    
Events Rain    
Averages and records for this station are not official NWS values.
T = Trace of Precipitation, MM = Missing Value Source: NWS Daily Summary

Daily Weather History Graph

Daily Weather History Graph

Search for Another Location

Airport or City:

Trip Planner

Search our weather history database for the weather conditions in past years. The results will help you decide how hot, cold, wet, or windy it might be!

Date:

Astronomy

Oct. 05, 2012 Rise Set
Actual Time 7:35 AM EDT 7:09 PM EDT
Civil Twilight 7:08 AM EDT 7:36 PM EDT
Nautical Twilight 6:36 AM EDT 8:08 PM EDT
Astronomical Twilight 6:04 AM EDT 8:40 PM EDT
Moon 10:29 PM EDT (10/5) 12:45 PM EDT (10/5)
Length of Visible Light 12h 28m
Length of Day
11h 33m
Waning Gibbous, 74% of the Moon is Illuminated
Oct 5
Waning Gibbous
Oct 8
Last Quarter
Oct 15
New
Oct 21
First Quarter
Oct 29
Full

Hourly Weather History & Observations

Time (EDT) Temp. Windchill Dew Point Humidity Pressure Visibility Wind Dir Wind Speed Gust Speed Precip Events Conditions
12:53 AM 66.0 °F - 55.0 °F 68% 30.05 in 10.0 mi SW 12.7 mph - N/A   Overcast
1:53 AM 64.9 °F - 55.0 °F 70% 30.04 in 10.0 mi SW 12.7 mph - N/A   Clear
2:53 AM 64.0 °F - 55.9 °F 75% 30.02 in 10.0 mi SW 9.2 mph - N/A   Scattered Clouds
3:53 AM 64.0 °F - 55.9 °F 75% 30.04 in 10.0 mi West 10.4 mph - N/A   Overcast
4:53 AM 60.1 °F - 55.9 °F 86% 30.04 in 10.0 mi WSW 6.9 mph - N/A   Partly Cloudy
5:53 AM 59.0 °F - 55.9 °F 90% 30.06 in 10.0 mi WSW 6.9 mph - N/A   Mostly Cloudy
6:10 AM 59.0 °F - 55.4 °F 88% 30.09 in 10.0 mi West 9.2 mph - N/A   Mostly Cloudy
6:53 AM 57.9 °F - 55.0 °F 90% 30.08 in 10.0 mi West 9.2 mph - N/A   Overcast
7:53 AM 57.9 °F - 54.0 °F 87% 30.08 in 8.0 mi WSW 8.1 mph - N/A   Overcast
8:41 AM 57.2 °F - 53.6 °F 88% 30.09 in 8.0 mi WSW 8.1 mph - N/A   Mostly Cloudy
8:53 AM 57.0 °F - 53.1 °F 87% 30.08 in 7.0 mi WSW 8.1 mph - 0.00 in Rain Light Rain
9:46 AM 55.4 °F - 51.8 °F 88% 30.10 in 9.0 mi West 9.2 mph - 0.00 in   Overcast
9:53 AM 55.9 °F - 51.1 °F 84% 30.09 in 9.0 mi West 12.7 mph - 0.00 in   Overcast
10:53 AM 54.0 °F - 50.0 °F 86% 30.07 in 10.0 mi West 6.9 mph - 0.04 in   Overcast
11:04 AM 53.6 °F - 50.0 °F 88% 30.09 in 10.0 mi WNW 6.9 mph - N/A   Overcast
11:15 AM 53.6 °F - 50.0 °F 88% 30.10 in 10.0 mi WNW 8.1 mph - N/A   Overcast
11:53 AM 52.0 °F - 46.9 °F 83% 30.09 in 7.0 mi West 9.2 mph - 0.00 in Rain Light Rain
12:18 PM 51.8 °F - 48.2 °F 88% 30.11 in 2.5 mi West 9.2 mph - 0.05 in Rain Rain
12:27 PM 51.8 °F - 48.2 °F 88% 30.11 in 6.0 mi West 9.2 mph - 0.05 in Rain Light Rain
12:45 PM 51.8 °F - 48.2 °F 88% 30.09 in 2.5 mi West 4.6 mph - 0.10 in Rain Rain
12:53 PM 51.1 °F - 48.9 °F 92% 30.08 in 4.0 mi West 4.6 mph - 0.11 in Rain Rain
1:15 PM 51.8 °F - 50.0 °F 94% 30.09 in 4.0 mi West 5.8 mph - 0.02 in Rain Light Rain
1:32 PM 51.8 °F - 50.0 °F 94% 30.09 in 1.8 mi West 10.4 mph - 0.07 in Rain Rain
1:45 PM 51.8 °F - 50.0 °F 94% 30.09 in 2.0 mi West 10.4 mph - 0.13 in Rain Rain
1:53 PM 51.1 °F - 48.9 °F 92% 30.08 in 3.0 mi West 10.4 mph - 0.15 in Rain Rain
2:02 PM 51.8 °F - 48.2 °F 88% 30.08 in 5.0 mi WSW 8.1 mph - 0.00 in Rain Light Rain
2:21 PM 51.8 °F - 48.2 °F 88% 30.06 in 3.0 mi West 8.1 mph - 0.04 in Rain Rain
2:53 PM 51.1 °F - 50.0 °F 96% 30.04 in 10.0 mi WSW 8.1 mph - 0.05 in Rain Light Rain
3:38 PM 51.8 °F - 48.2 °F 88% 30.04 in 10.0 mi West 9.2 mph - 0.00 in   Overcast
3:46 PM 51.8 °F - 48.2 °F 88% 30.04 in 10.0 mi West 10.4 mph - 0.00 in   Overcast
3:53 PM 52.0 °F - 48.9 °F 89% 30.02 in 10.0 mi West 9.2 mph - 0.00 in   Overcast
4:06 PM 51.8 °F - 50.0 °F 94% 30.03 in 10.0 mi West 8.1 mph - 0.00 in   Overcast
4:53 PM 51.1 °F - 48.0 °F 89% 30.01 in 10.0 mi West 8.1 mph - 0.00 in   Overcast
5:09 PM 50.0 °F - 48.2 °F 94% 30.03 in 7.0 mi West 6.9 mph - 0.01 in Rain Light Rain
5:23 PM 50.0 °F - 46.4 °F 87% 30.03 in 6.0 mi West 12.7 mph - 0.02 in Rain Light Rain
5:53 PM 50.0 °F - 48.0 °F 93% 30.03 in 10.0 mi West 10.4 mph - 0.02 in   Overcast
6:53 PM 46.9 °F - 44.1 °F 90% 30.01 in 8.0 mi WNW 12.7 mph - 0.00 in Rain Light Rain
7:53 PM 46.0 °F 40.2 °F 44.1 °F 93% 30.02 in 6.0 mi WNW 12.7 mph - 0.02 in Rain Light Rain
8:26 PM 44.6 °F 38.8 °F 42.8 °F 93% 30.04 in 3.0 mi WNW 11.5 mph - 0.10 in Rain Rain
8:35 PM 44.6 °F 42.2 °F 44.6 °F 100% 30.02 in 3.0 mi WNW 4.6 mph - 0.13 in Rain Rain
8:53 PM 45.0 °F 39.7 °F 44.1 °F 97% 30.03 in 4.0 mi WNW 10.4 mph 16.1 mph 0.18 in Rain Rain
9:03 PM 44.6 °F 40.7 °F 42.8 °F 93% 30.02 in 6.0 mi WNW 6.9 mph - 0.01 in Rain Light Rain
9:53 PM 45.0 °F 41.8 °F 43.0 °F 93% 30.02 in 5.0 mi WNW 5.8 mph - 0.11 in Rain Light Rain
10:48 PM 44.6 °F 40.2 °F 42.8 °F 93% 30.01 in 10.0 mi NW 8.1 mph - 0.03 in Rain Light Rain
10:53 PM 44.1 °F 38.6 °F 42.1 °F 93% 30.01 in 10.0 mi NW 10.4 mph - 0.03 in Rain Light Rain
11:35 PM 42.8 °F 38.6 °F 41.0 °F 93% 30.01 in 3.0 mi WNW 6.9 mph - 0.07 in Rain Rain
11:45 PM 42.8 °F 41.1 °F 42.8 °F 100% 30.00 in 2.5 mi WNW 3.5 mph - 0.11 in Rain Rain
11:51 PM 42.8 °F 38.6 °F 42.8 °F 100% 29.99 in 2.5 mi WNW 6.9 mph - 0.15 in Rain Heavy Rain
11:53 PM 43.0 °F 39.5 °F 42.1 °F 97% 29.99 in 2.5 mi NW 5.8 mph - 0.16 in Rain Heavy Rain